FALCON 9 DEB (55505 NORAD) Tracking and Keplerian Element Data

This shows tracking and keplerian element data for the satellite.

Feedback or suggestion? Click here.




ElementValue
Catalog55505
NameFALCON 9 DEB
Epoch Orbit483
Epoch Day62.7666022
Epoch Year2023
RAAN207.3327
Inclination42.9754
Eccentricity0.0019115
Argument of Perigee356.18
Mean Anonmoly3.8928
Mean Motion15.96372535
Decay Rate0.0054936
L11 55505U 23015BJ 23062.76660220 .00549360 13269-3 12451-2 0 9999
L22 55505 42.9754 207.3327 0019115 356.1800 3.8928 15.96372535 4838



Live tracking and technical data element details for FALCON 9 DEB (NORAD 55505). FALCON 9 DEB can be tracked NOW for your location showing map with azimuth and elevation plus other details from your city location.







IsCatalogInMostPopularTable: catalog: 55505, numindb: 1
Update: records affected: 1



GetName: 55505 FALCON 9 DEB

Hit Count: updated at: Mon, 05 Jun 2023 19:48:02 GMT